This demonstration page uses our WeatherBlox Daily Observations layout. Learn more.

Left ArrowRight Arrow

Hourly Observations for June 10, 2020

Temp ( °F °C ) Dew Point ( °F °C ) Humidity (%) Winds ( mph kmh ) Pressure ( in mb ) Visibility ( mi km ) Precip ( " mm )
12:56 am 00:56 Cloudy with Light Rain 64 17.6 60 15.8 89 89 NNW 13 20 29.51 999 10 16 0.00 0.00
1:56 am 01:56 Cloudy 61 16.2 57 13.8 86 86 NNW 16 26 29.54 1000 10 16 0.00 0.00
2:23 am 02:23 Cloudy with Light Rain 61 16 57 14 88 88 N 15 24 29.54 1000 6 10 0.00 0.00
2:56 am 02:56 Cloudy 59 15 55 12.8 87 87 NNW 20 31 29.56 1001 10 16 0.01 0.25
3:26 am 03:26 Cloudy 59 15 54 12 82 82 N 15 24 29.58 1002 10 16 0.00 0.00
3:41 am 03:41 Cloudy with Light Rain 59 15 54 12 82 82 NNW 26 43 29.57 1001 10 16 0.00 0.00
3:56 am 03:56 Cloudy with Light Rain 58 14.4 54 12.1 86 86 NNW 16 26 29.57 1001 10 16 0.00 0.00
4:35 am 04:35 Windy with Storms Likely 57 14 54 12 88 88 NNW 20 31 29.60 1002 6 10 0.00 0.00
4:56 am 04:56 Cloudy with Light Rain 58 14.2 53 11.7 85 85 NNW 20 31 29.62 1003 10 16 0.05 1.27
5:56 am 05:56 Cloudy with Light Rain 57 14.1 54 12.1 88 88 NNW 12 19 29.68 1005 10 16 0.05 1.27
6:56 am 06:56 Mostly Cloudy 59 14.8 54 12.1 84 84 NW 17 28 29.71 1006 10 16 0.01 0.25
7:56 am 07:56 Cloudy with Light Rain 59 15 54 12.3 84 84 NW 13 20 29.75 1008 10 16 0.01 0.25
8:56 am 08:56 Cloudy 60 15.6 54 12 79 79 NW 16 26 29.77 1008 10 16 0.00 0.00
9:56 am 09:56 Cloudy 61 16.2 52 11.3 73 73 NW 21 33 29.80 1009 10 16 0.00 0.00
10:56 am 10:56 Sunny 67 19.2 52 11.2 60 60 NW 24 39 29.82 1010 10 16 0.00 0.00
11:56 am 11:56 Partly Cloudy 69 20.5 53 11.4 56 56 NNW 18 30 29.86 1011 10 16 0.00 0.00
12:56 pm 12:56 Mostly Sunny 71 21.6 51 10.7 50 50 NNW 21 33 29.88 1012 10 16 0.00 0.00
1:56 pm 13:56 Mostly Sunny 73 22.6 52 11 48 48 NNW 17 28 29.90 1012 10 16 0.00 0.00
2:56 pm 14:56 Partly Cloudy 74 23.6 50 9.9 42 42 NW 22 35 29.91 1013 10 16 0.00 0.00
3:56 pm 15:56 Mostly Cloudy 74 23.2 50 9.9 43 43 NW 15 24 29.93 1014 10 16 0.00 0.00
4:56 pm 16:56 Cloudy 75 23.7 50 10 42 42 NNW 15 24 29.95 1014 10 16 0.00 0.00
5:56 pm 17:56 Partly Cloudy 75 24.1 49 9.3 39 39 NW 18 30 29.96 1015 10 16 0.00 0.00
6:56 pm 18:56 Sunny 74 23.6 46 8 37 37 NW 18 30 29.97 1015 10 16 0.00 0.00
7:56 pm 19:56 Mostly Sunny 72 22.4 46 7.8 39 39 NW 15 24 30.00 1016 10 16 0.00 0.00
8:56 pm 20:56 Clear 66 18.9 49 9.4 54 54 NW 8 13 30.03 1017 10 16 0.00 0.00
9:56 pm 21:56 Clear 60 15.3 49 9.4 68 68 W 3 6 30.05 1018 10 16 0.00 0.00
10:56 pm 22:56 Clear 57 13.7 50 9.9 78 78 NW 3 6 30.06 1018 10 16 0.00 0.00
11:56 pm 23:56 Clear 55 12.7 51 10.6 87 87 WNW 5 7 30.06 1018 10 16 0.00 0.00

Powered by AerisWeather